Overview Statistics Trail Chart Weather Telemetry Raw packets
 

This is the latest recevied weather packets stored in our database for station/object W4SNA-3. If no packets are shown the sender has not sent any weather packets the latest 10 day(s).

<< 58 59 60 61 62 63 64 >>
Time Temp. Humidity Pressure Rain* Wind** Luminosity Snow
1788199645 29.44° C 55% 1022.6 hPa 0 mm - - -
1788199345 29.44° C 56% 1022.6 hPa 0 mm - - -
1788199047 29.44° C 61% 1022.7 hPa 0 mm - - -
1788198745 29.44° C 60% 1023 hPa 0 mm - - -
1788198445 29.44° C 59% 1023 hPa 0 mm - - -
1788198145 29.44° C 61% 1023.1 hPa 0 mm - - -
1788197845 29.44° C 59% 1023 hPa 0 mm - - -
1788197547 29.44° C 60% 1023 hPa 0 mm - - -
1788197245 29.44° C 57% 1022.9 hPa 0 mm - - -
1788196945 29.44° C 62% 1023 hPa 0 mm - - -
1788196646 29.44° C 59% 1023 hPa 0 mm - - -
1788196345 29.44° C 61% 1023.1 hPa 0 mm - - -
1788196047 29.44° C 61% 1023 hPa 0 mm - - -
1788195745 29.44° C 64% 1023 hPa 0 mm - - -
1788195445 29.44° C 63% 1023.1 hPa 0 mm - - -
1788195146 29.44° C 61% 1023.1 hPa 0 mm - - -
1788194845 29.44° C 64% 1023.2 hPa 0 mm - - -
1788194545 29.44° C 63% 1023.3 hPa 0 mm - - -
1788194245 29.44° C 61% 1023.3 hPa 0 mm - - -
1788193796 28.89° C 64% 1023.5 hPa 0 mm - - -
1788193492 28.89° C 65% 1023.4 hPa 0 mm - - -
1788193218 28.89° C 63% 1023.5 hPa 0 mm - - -
1788192892 29.44° C 64% 1023.5 hPa 0 mm - - -
1788192592 29.44° C 63% 1023.5 hPa 0 mm - - -
1788192292 29.44° C 63% 1023.4 hPa 0 mm - - -

* Rain latest hour (hover to see other rain measurements)
** Current wind speed in m/s (hover to see current wind gust speed)